User: anonymous   Login
Location: C.E.K. Mees Observatory
(42.7003°N, 77.4088°W)
Time: 00:19:02
(UTC-04:00)
Language:

N. Korean satellite - Orbit

View from above orbital plane
View from above orbital plane
View from above satellite
View from above satellite

Ground track
Ground track

The orbit data is extracted from the following two-line orbital elements,

1 39026U 12072A   18229.62977393  .00001587  00000-0  61355-4 0  9995
2 39026  97.2106 237.9100 0040845 104.4065 256.1713 15.26908209315039
Epoch (UTC): 17 August 2018 15:06:52
Eccentricity: 0.0040845
inclination: 97.2106°
perigee height: 457 km
apogee height: 513 km
right ascension of ascending node: 237.9100°
argument of perigee: 104.4065°
revolutions per day: 15.26908209
mean anomaly at epoch: 256.1713°
orbit number at epoch: 31503

The dashed part of the orbit path shows where the satellite is in the earth's shadow,  

DLR